Regional Weather Roundup
Issued by NWS

Home | Current Version | Previous Version | Graphics & Text | Print | Product List | Glossary On
Versions: 1 2 3 4 5 6 7 8 9 10 11 12 13 14 15 16 17 18 19 20 21 22 23 24 25 26 27 28 29 30 31 32 33 34 35 36 37 38 39 40 41 42 43 44 45 46 47 48 49 50
000
ASUS43 KFSD 182210
RWRSD

WEATHER ROUNDUP FOR SOUTH DAKOTA
NATIONAL WEATHER SERVICE SIOUX FALLS SD
400 PM CST SAT NOV 18 2017

NOTE: "FAIR" INDICATES FEW OR NO CLOUDS BELOW 12,000 FEET WITH NO
SIGNIFICANT WEATHER AND/OR OBSTRUCTIONS TO VISIBILITY.


SDZ001>005-009-010-012>017-182300-
NORTHWEST AND NORTH CENTRAL SOUTH DAKOTA

CITY           SKY/WX    TMP DP  RH WIND       PRES   REMARKS
BUFFALO          N/A     42  21  43 NW24      30.02R
FAITH            N/A     38  25  59 NW10      30.09S
MOBRIDGE       CLEAR     36  17  46 NW10      30.08S
$$

SDZ012>016-024>037-041>051-057-063-072>074-182300-
SOUTHWEST AND SOUTH CENTRAL SOUTH DAKOTA

CITY           SKY/WX    TMP DP  RH WIND       PRES   REMARKS
RAPID CTY ARPT PTSUNNY   42  18  37 N14       30.11R
PIERRE         CLEAR     36  23  59 NW12      30.11S
CUSTER         MOSUNNY   35  12  38 W16G25    30.08R WCI  25
ELLSWORTH AFB  MOSUNNY   43  17  35 NW17      30.10R
PHILIP         MOSUNNY   44  23  43 NW17G26   30.11S
PINE RIDGE     SUNNY     45  16  31 W13G23    30.12F
SPEARFISH      FAIR      41  16  36 NW22G29   30.11R
WINNER         FAIR      42  24  49 NW16      30.12R
$$

SDZ004>011-016>023-039-040-182300-
NORTHEAST SOUTH DAKOTA

CITY           SKY/WX    TMP DP  RH WIND       PRES   REMARKS
ABERDEEN       CLEAR     30  13  49 NW18G26   30.10R WCI  18
WATERTOWN      CLEAR     28  13  53 NW20G26   30.03R WCI  15
BROOKINGS      CLEAR     31  16  54 NW21G29   30.02R WCI  18
SISSETON         N/A     27  11  51 NW20G28   30.04R WCI  13
$$

SDZ017-020-022-023-036>040-048>070-182300-
SOUTHEAST SOUTH DAKOTA

CITY           SKY/WX    TMP DP  RH WIND       PRES   REMARKS
SIOUX FALLS    CLEAR     35  18  49 NW17G28   30.06R WCI  25
HURON          CLEAR     34  16  47 NW20      30.10R WCI  23
CHAMBERLAIN    CLEAR     38  22  53 NW13      30.12S
MITCHELL       CLEAR     37  18  46 NW21      30.10S
YANKTON        CLEAR     36  18  48 NW16      30.10R
$$

ABBREVIATIONS USED IN REMARKS
   TC - TEMPERATURE IN CELSIUS
  WCI - WIND CHILL INDEX
   HX - HEAT INDEX
  VSB - VISIBILITY




USA.gov is the U.S. government's official web portal to all federal, state and local government web resources and services.